XAX221 YSSY-WMKK

Flight info

Callsign XAX221
Flight time N/A
Altitude 38000
Route KADOM1/34L KADOM A576 ATMAP M635 VTK B338 IRTAD A464 SJ G579 VJB A457 GUPTA GUPTA1G
Aircraft A333/H-SDE3GHIJ2J3J5M1RVWXY/LB2D1

Departure

Time N/A
Airport Sydney Kingsford Smith International Airport (YSSY)

Arrival

Time 2026-05-04 02:21
Airport Kuala Lumpur International Airport (WMKK)
Time Latitude Longitude Altitude Speed Heading
2026-05-03 20:15 -25.01617 135.51018 36147 ft 379 kts 306°
2026-05-03 20:15 -24.98308 135.46531 36147 ft 380 kts 306°
2026-05-03 20:16 -24.94970 135.42010 36147 ft 380 kts 306°
2026-05-03 20:16 -24.91634 135.37494 36147 ft 380 kts 306°
2026-05-03 20:17 -24.88298 135.32978 36147 ft 381 kts 306°
2026-05-03 20:17 -24.84974 135.28485 36147 ft 381 kts 306°
2026-05-03 20:18 -24.81621 135.23963 36145 ft 381 kts 306°
2026-05-03 20:18 -24.78268 135.19440 36169 ft 381 kts 306°
2026-05-03 20:19 -24.74919 135.14927 36173 ft 381 kts 306°
2026-05-03 20:19 -24.71582 135.10436 36173 ft 381 kts 306°
2026-05-03 20:20 -24.68229 135.05928 36173 ft 381 kts 306°
2026-05-03 20:20 -24.64869 135.01415 36173 ft 381 kts 306°
2026-05-03 20:21 -24.61508 134.96905 36173 ft 382 kts 306°
2026-05-03 20:21 -24.58142 134.92390 36173 ft 382 kts 307°
2026-05-03 20:22 -24.54794 134.87904 36175 ft 382 kts 307°
2026-05-03 20:22 -24.51423 134.83392 36173 ft 382 kts 307°
2026-05-03 20:23 -24.48050 134.78880 36173 ft 382 kts 307°
2026-05-03 20:23 -24.44671 134.74368 36187 ft 382 kts 307°
2026-05-03 20:24 -24.41320 134.69895 36182 ft 382 kts 307°
2026-05-03 20:24 -24.37939 134.65387 36182 ft 382 kts 307°
2026-05-03 20:25 -24.34560 134.60883 36183 ft 382 kts 307°
2026-05-03 20:25 -24.31179 134.56385 36186 ft 382 kts 307°
2026-05-03 20:26 -24.27796 134.51886 36184 ft 383 kts 307°
2026-05-03 20:26 -24.24437 134.47421 36187 ft 382 kts 307°
2026-05-03 20:27 -24.21049 134.42919 36185 ft 383 kts 307°
2026-05-03 20:27 -24.17649 134.38411 36182 ft 384 kts 307°
2026-05-03 20:28 -24.14249 134.33913 36185 ft 384 kts 307°
2026-05-03 20:28 -24.10870 134.29441 36186 ft 383 kts 307°
2026-05-03 20:29 -24.07470 134.24944 36182 ft 383 kts 307°
2026-05-03 20:29 -24.04070 134.20450 36186 ft 384 kts 307°
2026-05-03 20:30 -24.00665 134.15955 36183 ft 384 kts 307°
2026-05-03 20:30 -23.97284 134.11497 36182 ft 383 kts 307°
2026-05-03 20:31 -23.93877 134.07008 36183 ft 383 kts 307°
2026-05-03 20:31 -23.90473 134.02523 36184 ft 384 kts 307°
2026-05-03 20:32 -23.87061 133.98038 36182 ft 384 kts 307°
2026-05-03 20:32 -23.83647 133.93550 36182 ft 384 kts 307°
2026-05-03 20:33 -23.80268 133.89091 36184 ft 383 kts 305°
2026-05-03 20:33 -23.77289 133.84284 36183 ft 382 kts 301°
2026-05-03 20:34 -23.74482 133.79359 36182 ft 382 kts 300°
2026-05-03 20:34 -23.71709 133.74415 36182 ft 382 kts 300°
2026-05-03 20:35 -23.68943 133.69496 36183 ft 383 kts 300°
2026-05-03 20:35 -23.66153 133.64553 36185 ft 383 kts 300°
2026-05-03 20:36 -23.63357 133.59610 36179 ft 383 kts 300°
2026-05-03 20:36 -23.60558 133.54668 36187 ft 383 kts 300°
2026-05-03 20:37 -23.57770 133.49754 36181 ft 384 kts 300°
2026-05-03 20:37 -23.54962 133.44807 36187 ft 384 kts 300°
2026-05-03 20:38 -23.52150 133.39859 36182 ft 384 kts 300°
2026-05-03 20:38 -23.49337 133.34912 36183 ft 385 kts 300°
2026-05-03 20:39 -23.46536 133.29989 36184 ft 385 kts 300°
2026-05-03 20:39 -23.43712 133.25033 36184 ft 385 kts 300°
2026-05-03 20:40 -23.40887 133.20079 36182 ft 385 kts 300°
2026-05-03 20:40 -23.38060 133.15129 36185 ft 385 kts 300°
2026-05-03 20:41 -23.35249 133.10211 36183 ft 385 kts 300°
2026-05-03 20:41 -23.32417 133.05260 36183 ft 386 kts 300°
2026-05-03 20:42 -23.29578 133.00303 36185 ft 386 kts 300°
2026-05-03 20:42 -23.26739 132.95350 36177 ft 386 kts 300°
2026-05-03 20:43 -23.23897 132.90396 36176 ft 386 kts 300°
2026-05-03 20:43 -23.21074 132.85476 36174 ft 386 kts 300°
2026-05-03 20:44 -23.18227 132.80525 36171 ft 386 kts 301°
2026-05-03 20:44 -23.15379 132.75576 36177 ft 386 kts 301°
2026-05-03 20:45 -23.12530 132.70631 36173 ft 386 kts 301°
2026-05-03 20:45 -23.09700 132.65724 36173 ft 386 kts 301°
2026-05-03 20:46 -23.06847 132.60783 36173 ft 386 kts 301°
2026-05-03 20:46 -23.03992 132.55835 36174 ft 387 kts 301°
2026-05-03 20:47 -23.01129 132.50882 36173 ft 387 kts 301°
2026-05-03 20:47 -22.98266 132.45936 36177 ft 387 kts 301°
2026-05-03 20:48 -22.95420 132.41021 36177 ft 387 kts 301°
2026-05-03 20:48 -22.92549 132.36069 36177 ft 388 kts 301°
2026-05-03 20:49 -22.89676 132.31119 36164 ft 388 kts 301°
2026-05-03 20:49 -22.86794 132.26162 36165 ft 388 kts 301°
2026-05-03 20:50 -22.83913 132.21206 36166 ft 389 kts 301°
2026-05-03 20:50 -22.81047 132.16283 36165 ft 389 kts 301°
2026-05-03 20:51 -22.78156 132.11322 36165 ft 389 kts 301°
2026-05-03 20:51 -22.75264 132.06361 36164 ft 390 kts 301°
2026-05-03 20:52 -22.72361 132.01389 36164 ft 391 kts 301°
2026-05-03 20:52 -22.69477 131.96454 36168 ft 390 kts 301°
2026-05-03 20:53 -22.66571 131.91484 36163 ft 391 kts 301°
2026-05-03 20:53 -22.63659 131.86508 36157 ft 391 kts 301°
2026-05-03 20:54 -22.60743 131.81533 36156 ft 391 kts 301°
2026-05-03 20:54 -22.56381 131.74102 36155 ft 392 kts 301°
2026-05-03 20:55 -22.53460 131.69129 36157 ft 392 kts 301°
2026-05-03 20:55 -22.50542 131.64161 36156 ft 392 kts 301°
2026-05-03 20:56 -22.47618 131.59192 36154 ft 392 kts 301°
2026-05-03 20:56 -22.44692 131.54224 36148 ft 392 kts 301°
2026-05-03 20:57 -22.41784 131.49292 36148 ft 392 kts 301°
2026-05-03 20:57 -22.38855 131.44326 36145 ft 392 kts 301°
2026-05-03 20:58 -22.35928 131.39365 36148 ft 391 kts 301°
2026-05-03 20:58 -22.32995 131.34409 36141 ft 391 kts 301°
2026-05-03 20:59 -22.30082 131.29488 36128 ft 392 kts 301°
2026-05-03 20:59 -22.27142 131.24529 36144 ft 392 kts 301°
2026-05-03 21:00 -22.24699 131.20409 36145 ft 392 kts 301°
2026-05-03 21:00 -22.21266 131.14622 36130 ft 392 kts 301°
2026-05-03 21:01 -22.18346 131.09704 36141 ft 392 kts 301°
2026-05-03 21:01 -22.15403 131.04755 36128 ft 392 kts 301°
2026-05-03 21:02 -22.12463 130.99814 36133 ft 392 kts 301°
2026-05-03 21:02 -22.09518 130.94868 36132 ft 392 kts 301°
2026-05-03 21:03 -22.06571 130.89924 36122 ft 392 kts 301°
2026-05-03 21:03 -22.03643 130.85014 36124 ft 392 kts 301°
2026-05-03 21:04 -22.00690 130.80075 36124 ft 392 kts 300°
2026-05-03 21:04 -21.97735 130.75132 36114 ft 393 kts 300°
2026-05-03 21:05 -21.94766 130.70170 36121 ft 395 kts 300°
2026-05-03 21:05 -21.91813 130.65241 36121 ft 394 kts 300°
2026-05-03 21:06 -21.88839 130.60283 36114 ft 394 kts 300°
2026-05-03 21:06 -21.85866 130.55327 36111 ft 394 kts 300°
2026-05-03 21:07 -21.82892 130.50373 36106 ft 394 kts 300°
2026-05-03 21:07 -21.79938 130.45461 36107 ft 393 kts 300°
2026-05-03 21:08 -21.76964 130.40523 36112 ft 393 kts 300°
2026-05-03 21:08 -21.73990 130.35589 36108 ft 393 kts 300°
2026-05-03 21:09 -21.71020 130.30663 36104 ft 393 kts 300°
2026-05-03 21:09 -21.68046 130.25732 36099 ft 393 kts 300°
2026-05-03 21:10 -21.65090 130.20839 36101 ft 393 kts 300°
2026-05-03 21:10 -21.62112 130.15909 36101 ft 393 kts 300°
2026-05-03 21:11 -21.59133 130.10985 36102 ft 393 kts 300°
2026-05-03 21:11 -21.56152 130.06063 36091 ft 393 kts 300°
2026-05-03 21:12 -21.53191 130.01180 36091 ft 393 kts 300°
2026-05-03 21:12 -21.50206 129.96258 36090 ft 393 kts 300°
2026-05-03 21:13 -21.47214 129.91332 36092 ft 394 kts 300°
2026-05-03 21:13 -21.44217 129.86402 36091 ft 394 kts 300°
2026-05-03 21:14 -21.41233 129.81499 36086 ft 395 kts 300°
2026-05-03 21:14 -21.38223 129.76555 36081 ft 396 kts 300°
2026-05-03 21:15 -21.35206 129.71603 36081 ft 397 kts 300°
2026-05-03 21:15 -21.32187 129.66653 36082 ft 397 kts 300°
2026-05-03 21:16 -21.29180 129.61724 36081 ft 398 kts 300°
2026-05-03 21:16 -21.26144 129.56756 36075 ft 399 kts 300°
2026-05-03 21:17 -21.23613 129.52619 36073 ft 399 kts 300°
2026-05-03 21:17 -21.20051 129.46802 36076 ft 399 kts 300°
2026-05-03 21:18 -21.17020 129.41853 36071 ft 400 kts 300°
2026-05-03 21:18 -21.13964 129.36869 36076 ft 401 kts 300°
2026-05-03 21:19 -21.10900 129.31878 36070 ft 401 kts 300°
2026-05-03 21:19 -21.07829 129.26880 36068 ft 402 kts 300°
2026-05-03 21:20 -21.04775 129.21911 36064 ft 402 kts 300°
2026-05-03 21:20 -21.01695 129.16905 36053 ft 403 kts 300°
2026-05-03 21:21 -20.98608 129.11895 36066 ft 403 kts 300°
2026-05-03 21:21 -20.95520 129.06887 36066 ft 403 kts 300°
2026-05-03 21:22 -20.92431 129.01879 36056 ft 404 kts 300°
2026-05-03 21:22 -20.89351 128.96891 36057 ft 405 kts 300°
2026-05-03 21:23 -20.86244 128.91867 36057 ft 405 kts 300°
2026-05-03 21:23 -20.83139 128.86848 36058 ft 405 kts 300°
2026-05-03 21:24 -20.80028 128.81823 36057 ft 406 kts 300°
2026-05-03 21:24 -20.76932 128.76828 36056 ft 406 kts 300°
2026-05-03 21:25 -20.73814 128.71804 36052 ft 406 kts 300°
2026-05-03 21:25 -20.70688 128.66772 36036 ft 406 kts 300°
2026-05-03 21:26 -20.67564 128.61744 36035 ft 406 kts 300°
2026-05-03 21:26 -20.64454 128.56742 36035 ft 407 kts 300°
2026-05-03 21:27 -20.61316 128.51697 36018 ft 408 kts 300°
2026-05-03 21:27 -20.58173 128.46654 36017 ft 408 kts 300°
2026-05-03 21:28 -20.55026 128.41613 36018 ft 408 kts 300°
2026-05-03 21:28 -20.51904 128.36608 36018 ft 409 kts 300°
2026-05-03 21:29 -20.48749 128.31554 36017 ft 409 kts 300°
2026-05-03 21:29 -20.45588 128.26498 36018 ft 410 kts 300°
2026-05-03 21:30 -20.42423 128.21442 36018 ft 410 kts 300°
2026-05-03 21:30 -20.39275 128.16417 36010 ft 411 kts 300°
2026-05-03 21:31 -20.36098 128.11349 36008 ft 411 kts 300°
2026-05-03 21:31 -20.32916 128.06280 36010 ft 411 kts 300°
2026-05-03 21:32 -20.29738 128.01220 36010 ft 411 kts 300°
2026-05-03 21:32 -20.26577 127.96193 36008 ft 411 kts 299°
2026-05-03 21:33 -20.23391 127.91126 36007 ft 412 kts 300°
2026-05-03 21:33 -20.20200 127.86055 36010 ft 412 kts 300°
2026-05-03 21:34 -20.17003 127.80982 36008 ft 413 kts 300°
2026-05-03 21:34 -20.13824 127.75942 35999 ft 413 kts 300°
2026-05-03 21:35 -20.10628 127.70882 36001 ft 412 kts 300°
2026-05-03 21:35 -20.07432 127.65822 36000 ft 412 kts 300°
2026-05-03 21:36 -20.04234 127.60764 36000 ft 412 kts 300°
2026-05-03 21:36 -20.01057 127.55744 36000 ft 412 kts 300°
2026-05-03 21:37 -19.97860 127.50697 36000 ft 411 kts 300°
2026-05-03 21:37 -19.94653 127.45636 36000 ft 414 kts 300°
2026-05-03 21:38 -19.91432 127.40559 36000 ft 414 kts 300°
2026-05-03 21:38 -19.88231 127.35518 35997 ft 415 kts 299°
2026-05-03 21:39 -19.85002 127.30438 36000 ft 415 kts 300°
2026-05-03 21:39 -19.81771 127.25358 35985 ft 415 kts 300°
2026-05-03 21:40 -19.78537 127.20279 35991 ft 415 kts 299°
2026-05-03 21:40 -19.75320 127.15231 35992 ft 416 kts 299°
2026-05-03 21:41 -19.72079 127.10149 35985 ft 416 kts 299°
2026-05-03 21:41 -19.68839 127.05073 35995 ft 416 kts 299°
2026-05-03 21:42 -19.65590 126.99987 35994 ft 416 kts 299°
2026-05-03 21:42 -19.62338 126.94901 35985 ft 416 kts 299°
2026-05-03 21:43 -19.59109 126.89856 35985 ft 416 kts 299°
2026-05-03 21:43 -19.55854 126.84771 35995 ft 416 kts 299°
2026-05-03 21:44 -19.52595 126.79687 35992 ft 417 kts 299°
2026-05-03 21:44 -19.49333 126.74602 35985 ft 417 kts 299°
2026-05-03 21:45 -19.46094 126.69557 35985 ft 417 kts 299°
2026-05-03 21:45 -19.42825 126.64470 35995 ft 418 kts 299°
2026-05-03 21:46 -19.39550 126.59386 35995 ft 418 kts 299°
2026-05-03 21:46 -19.36270 126.54304 35982 ft 418 kts 299°
2026-05-03 21:47 -19.32988 126.49221 35983 ft 418 kts 299°
2026-05-03 21:47 -19.29729 126.44174 35980 ft 418 kts 299°
2026-05-03 21:48 -19.26449 126.39098 36000 ft 418 kts 299°
2026-05-03 21:48 -19.23160 126.34017 36005 ft 419 kts 299°
2026-05-03 21:49 -19.19869 126.28936 36005 ft 418 kts 299°
2026-05-03 21:49 -19.16598 126.23890 36004 ft 419 kts 299°
2026-05-03 21:50 -19.13300 126.18805 36005 ft 419 kts 299°
2026-05-03 21:50 -19.09998 126.13719 36010 ft 419 kts 299°
2026-05-03 21:51 -19.06694 126.08634 36005 ft 420 kts 299°
2026-05-03 21:51 -19.03412 126.03585 36007 ft 420 kts 299°
2026-05-03 21:52 -19.00094 125.98485 35998 ft 422 kts 299°
2026-05-03 21:52 -18.96763 125.93372 36000 ft 423 kts 299°
2026-05-03 21:53 -18.93421 125.88247 35999 ft 424 kts 299°
2026-05-03 21:53 -18.90094 125.83148 35998 ft 425 kts 299°
2026-05-03 21:54 -18.86739 125.78010 36001 ft 425 kts 299°
2026-05-03 21:54 -18.83381 125.72871 35996 ft 425 kts 299°
2026-05-03 21:55 -18.80023 125.67738 35996 ft 426 kts 299°
2026-05-03 21:55 -18.76655 125.62591 36003 ft 427 kts 299°
2026-05-03 21:56 -18.73302 125.57473 36001 ft 427 kts 299°
2026-05-03 21:56 -18.69923 125.52321 35997 ft 427 kts 299°
2026-05-03 21:57 -18.66544 125.47171 35999 ft 427 kts 299°
2026-05-03 21:57 -18.63159 125.42017 35992 ft 428 kts 299°
2026-05-03 21:58 -18.59771 125.36863 36000 ft 428 kts 299°
2026-05-03 21:58 -18.56407 125.31747 36000 ft 428 kts 299°
2026-05-03 21:59 -18.53015 125.26595 35999 ft 428 kts 299°
2026-05-03 21:59 -18.49622 125.21446 35999 ft 428 kts 299°
2026-05-03 22:00 -18.46248 125.16325 36000 ft 428 kts 299°
2026-05-03 22:00 -18.42847 125.11169 36000 ft 428 kts 299°
2026-05-03 22:01 -18.39445 125.06019 36000 ft 428 kts 299°
2026-05-03 22:01 -18.36038 125.00868 36000 ft 429 kts 299°
2026-05-03 22:02 -18.32630 124.95719 36002 ft 429 kts 299°
2026-05-03 22:02 -18.29239 124.90596 35995 ft 429 kts 299°
2026-05-03 22:03 -18.25824 124.85441 36002 ft 430 kts 298°
2026-05-03 22:03 -18.22404 124.80280 36002 ft 430 kts 299°
2026-05-03 22:04 -18.18976 124.75115 35999 ft 431 kts 299°
2026-05-03 22:04 -18.15543 124.69947 36001 ft 431 kts 299°
2026-05-03 22:05 -18.12132 124.64817 35998 ft 432 kts 299°
2026-05-03 22:05 -18.08690 124.59642 36000 ft 432 kts 299°
2026-05-03 22:06 -18.05247 124.54468 35999 ft 432 kts 298°
2026-05-03 22:06 -18.01799 124.49291 36000 ft 433 kts 298°
2026-05-03 22:07 -17.98368 124.44145 35998 ft 433 kts 299°
2026-05-03 22:07 -17.94899 124.38949 36000 ft 435 kts 299°
2026-05-03 22:08 -17.91421 124.33740 36000 ft 436 kts 299°
2026-05-03 22:08 -17.87942 124.28535 35995 ft 436 kts 298°
2026-05-03 22:09 -17.84461 124.23330 36001 ft 435 kts 298°
2026-05-03 22:10 -17.79265 124.15567 36000 ft 435 kts 298°
2026-05-03 22:10 -17.75784 124.10374 35985 ft 435 kts 299°
2026-05-03 22:11 -17.72298 124.05179 35993 ft 435 kts 299°
2026-05-03 22:11 -17.68813 123.99988 35986 ft 435 kts 299°
2026-05-03 22:12 -17.65355 123.94840 35988 ft 435 kts 299°
2026-05-03 22:12 -17.61865 123.89649 35995 ft 436 kts 298°
2026-05-03 22:13 -17.58153 123.84588 35985 ft 443 kts 306°
2026-05-03 22:13 -17.53870 123.79928 35985 ft 445 kts 308°
2026-05-03 22:14 -17.49502 123.75386 35987 ft 446 kts 308°
2026-05-03 22:14 -17.45085 123.70824 35995 ft 446 kts 308°
2026-05-03 22:15 -17.40670 123.66250 35984 ft 447 kts 308°
2026-05-03 22:15 -17.36262 123.61672 35985 ft 447 kts 308°
2026-05-03 22:16 -17.31849 123.57089 36000 ft 447 kts 308°
2026-05-03 22:16 -17.27464 123.52536 36000 ft 447 kts 308°
2026-05-03 22:17 -17.23042 123.47950 36000 ft 448 kts 308°
2026-05-03 22:17 -17.18617 123.43365 35998 ft 448 kts 308°
2026-05-03 22:18 -17.14218 123.38811 35995 ft 448 kts 308°
2026-05-03 22:18 -17.09789 123.34229 36003 ft 449 kts 308°
2026-05-03 22:19 -17.05350 123.29635 35998 ft 449 kts 308°
2026-05-03 22:19 -17.00905 123.25044 35997 ft 449 kts 308°
2026-05-03 22:20 -16.96462 123.20454 36000 ft 449 kts 308°
2026-05-03 22:20 -16.92046 123.15897 36000 ft 449 kts 308°
2026-05-03 22:21 -16.87597 123.11312 35998 ft 450 kts 308°
2026-05-03 22:21 -16.83142 123.06721 35998 ft 450 kts 308°
2026-05-03 22:22 -16.78687 123.02133 35999 ft 450 kts 308°
2026-05-03 22:22 -16.74227 122.97545 36000 ft 450 kts 308°
2026-05-03 22:23 -16.69797 122.92990 36000 ft 450 kts 308°
2026-05-03 22:23 -16.65332 122.88401 36008 ft 451 kts 308°
2026-05-03 22:24 -16.60863 122.83811 36003 ft 451 kts 308°
2026-05-03 22:24 -16.56389 122.79221 36009 ft 452 kts 308°
2026-05-03 22:25 -16.51944 122.74663 36008 ft 452 kts 308°
2026-05-03 22:25 -16.47462 122.70070 36012 ft 452 kts 308°
2026-05-03 22:26 -16.42978 122.65479 36007 ft 452 kts 308°
2026-05-03 22:26 -16.38494 122.60891 36012 ft 452 kts 308°
2026-05-03 22:27 -16.34041 122.56334 36011 ft 452 kts 308°
2026-05-03 22:27 -16.29545 122.51739 36007 ft 453 kts 308°
2026-05-03 22:28 -16.25047 122.47147 36006 ft 453 kts 308°
2026-05-03 22:28 -16.20542 122.42552 36008 ft 454 kts 308°
2026-05-03 22:29 -16.16037 122.37957 36005 ft 454 kts 308°
2026-05-03 22:29 -16.11552 122.33385 36009 ft 454 kts 308°
2026-05-03 22:30 -16.07036 122.28784 36005 ft 454 kts 308°
2026-05-03 22:30 -16.02518 122.24185 36004 ft 454 kts 308°
2026-05-03 22:31 -15.98028 122.19618 36001 ft 454 kts 308°
2026-05-03 22:31 -15.93513 122.15029 36018 ft 455 kts 308°
2026-05-03 22:32 -15.88990 122.10437 36016 ft 454 kts 308°
2026-05-03 22:32 -15.84470 122.05849 36017 ft 454 kts 308°
2026-05-03 22:33 -15.79949 122.01265 36179 ft 455 kts 308°
2026-05-03 22:33 -15.77684 121.98968 36302 ft 455 kts 308°
2026-05-03 22:33 -15.75449 121.96701 36395 ft 455 kts 308°
2026-05-03 22:33 -15.73188 121.94409 36523 ft 455 kts 308°
2026-05-03 22:34 -15.70922 121.92112 36639 ft 455 kts 308°
2026-05-03 22:34 -15.68656 121.89818 36771 ft 455 kts 308°
2026-05-03 22:34 -15.66391 121.87524 36953 ft 454 kts 308°
2026-05-03 22:34 -15.64137 121.85245 37170 ft 451 kts 308°
2026-05-03 22:35 -15.62654 121.83748 37310 ft 450 kts 308°
2026-05-03 22:35 -15.60417 121.81488 37446 ft 448 kts 308°
2026-05-03 22:35 -15.58184 121.79231 37563 ft 448 kts 308°
2026-05-03 22:36 -15.52994 121.73980 37731 ft 449 kts 308°
2026-05-03 22:36 -15.48518 121.69458 37885 ft 449 kts 308°
2026-05-03 22:37 -15.44790 121.65693 37948 ft 450 kts 308°
2026-05-03 22:37 -15.39563 121.60422 38008 ft 452 kts 309°
2026-05-03 22:38 -15.35061 121.55885 38008 ft 451 kts 309°
2026-05-03 22:38 -15.31322 121.52120 38008 ft 451 kts 309°
2026-05-03 22:39 -15.26820 121.47582 38008 ft 452 kts 309°
2026-05-03 22:39 -15.22311 121.43047 38008 ft 452 kts 309°
2026-05-03 22:40 -15.17799 121.38514 38008 ft 452 kts 309°
2026-05-03 22:40 -15.13287 121.33981 38008 ft 452 kts 309°
2026-05-03 22:41 -15.08806 121.29482 38008 ft 452 kts 309°
2026-05-03 22:41 -15.04290 121.24950 38009 ft 452 kts 309°
2026-05-03 22:42 -14.99773 121.20417 38007 ft 452 kts 309°
2026-05-03 22:42 -14.95256 121.15887 38008 ft 452 kts 309°
2026-05-03 22:43 -14.90763 121.11389 38008 ft 453 kts 309°
2026-05-03 22:43 -14.86239 121.06861 38008 ft 453 kts 309°
2026-05-03 22:44 -14.81718 121.02338 38008 ft 453 kts 309°
2026-05-03 22:44 -14.77195 120.97817 38008 ft 452 kts 309°
2026-05-03 22:45 -14.72698 120.93325 38000 ft 453 kts 309°
2026-05-03 22:45 -14.68172 120.88804 37999 ft 452 kts 309°
2026-05-03 22:46 -14.63644 120.84283 37999 ft 453 kts 309°
2026-05-03 22:46 -14.59116 120.79765 37999 ft 453 kts 309°
2026-05-03 22:47 -14.54589 120.75253 37999 ft 453 kts 309°
2026-05-03 22:47 -14.50086 120.70767 37999 ft 453 kts 309°
2026-05-03 22:48 -14.45553 120.66253 37999 ft 453 kts 309°
2026-05-03 22:48 -14.41024 120.61747 38018 ft 452 kts 309°
2026-05-03 22:49 -14.36494 120.57242 38017 ft 452 kts 309°
2026-05-03 22:49 -14.31993 120.52769 38017 ft 452 kts 309°
2026-05-03 22:50 -14.27470 120.48275 38017 ft 452 kts 310°
2026-05-03 22:50 -14.22942 120.43782 38011 ft 452 kts 309°
2026-05-03 22:51 -14.18416 120.39289 38008 ft 452 kts 310°
2026-05-03 22:51 -14.13915 120.34826 38008 ft 452 kts 310°
2026-05-03 22:52 -14.09385 120.30337 38008 ft 452 kts 310°
2026-05-03 22:52 -14.04853 120.25849 38008 ft 452 kts 310°
2026-05-03 22:53 -14.00321 120.21364 38008 ft 452 kts 310°
2026-05-03 22:53 -13.95787 120.16877 38008 ft 452 kts 310°
2026-05-03 22:54 -13.91285 120.12426 38008 ft 452 kts 310°
2026-05-03 22:54 -13.86746 120.07941 38008 ft 452 kts 310°
2026-05-03 22:55 -13.82207 120.03457 38008 ft 452 kts 310°
2026-05-03 22:55 -13.77669 119.98978 38008 ft 452 kts 310°
2026-05-03 22:56 -13.73156 119.94529 38000 ft 452 kts 310°
2026-05-03 22:56 -13.68619 119.90056 37999 ft 452 kts 310°
2026-05-03 22:57 -13.64075 119.85576 37999 ft 453 kts 310°
2026-05-03 22:57 -13.59526 119.81099 37998 ft 453 kts 310°
2026-05-03 22:58 -13.54972 119.76617 37999 ft 454 kts 310°
2026-05-03 22:58 -13.50441 119.72158 37999 ft 454 kts 310°
2026-05-03 22:59 -13.45878 119.67673 37999 ft 454 kts 310°
2026-05-03 22:59 -13.41311 119.63184 37999 ft 455 kts 310°
2026-05-03 23:00 -13.36743 119.58699 37999 ft 455 kts 310°
2026-05-03 23:00 -13.32163 119.54203 37999 ft 456 kts 310°
2026-05-03 23:01 -13.27608 119.49732 37998 ft 456 kts 310°
2026-05-03 23:01 -13.23019 119.45233 37994 ft 456 kts 310°
2026-05-03 23:02 -13.18426 119.40734 37990 ft 457 kts 311°
2026-05-03 23:02 -13.13825 119.36228 37988 ft 457 kts 311°
2026-05-03 23:03 -13.09221 119.31720 37989 ft 458 kts 311°
2026-05-03 23:03 -13.04650 119.27251 37990 ft 457 kts 311°
2026-05-03 23:04 -13.00042 119.22746 37990 ft 458 kts 311°
2026-05-03 23:04 -12.95427 119.18233 37989 ft 459 kts 311°
2026-05-03 23:05 -12.90804 119.13719 37989 ft 459 kts 311°
2026-05-03 23:05 -12.86211 119.09237 37990 ft 459 kts 311°
2026-05-03 23:06 -12.81587 119.04727 37989 ft 459 kts 311°
2026-05-03 23:06 -12.76962 119.00215 37989 ft 459 kts 311°
2026-05-03 23:07 -12.72340 118.95710 37990 ft 459 kts 311°
2026-05-03 23:07 -12.67739 118.91228 37980 ft 460 kts 311°
2026-05-03 23:08 -12.63099 118.86712 37980 ft 460 kts 311°
2026-05-03 23:08 -12.58457 118.82194 37981 ft 461 kts 311°
2026-05-03 23:09 -12.53806 118.77668 37980 ft 461 kts 311°
2026-05-03 23:09 -12.49184 118.73175 37980 ft 461 kts 311°
2026-05-03 23:10 -12.44534 118.68658 37980 ft 461 kts 311°
2026-05-03 23:10 -12.39877 118.64137 37980 ft 461 kts 311°
2026-05-03 23:11 -12.35219 118.59615 37957 ft 461 kts 311°
2026-05-03 23:11 -12.30591 118.55125 37977 ft 462 kts 311°
2026-05-03 23:12 -12.25927 118.50602 37977 ft 462 kts 311°
2026-05-03 23:12 -12.21264 118.46084 37978 ft 462 kts 312°
2026-05-03 23:13 -12.16594 118.41563 37972 ft 463 kts 312°
2026-05-03 23:13 -12.11927 118.37044 37955 ft 463 kts 312°
2026-05-03 23:14 -12.07285 118.32552 37959 ft 463 kts 312°
2026-05-03 23:14 -12.02605 118.28027 37959 ft 463 kts 312°
2026-05-03 23:15 -11.97919 118.23499 37958 ft 464 kts 312°
2026-05-03 23:15 -11.93235 118.18972 37960 ft 463 kts 312°
2026-05-03 23:16 -11.88581 118.14478 37962 ft 464 kts 312°
2026-05-03 23:16 -11.83900 118.09959 37967 ft 464 kts 312°
2026-05-03 23:17 -11.79212 118.05437 37957 ft 464 kts 312°
2026-05-03 23:17 -11.74524 118.00917 37977 ft 464 kts 312°
2026-05-03 23:18 -11.69866 117.96427 37967 ft 464 kts 312°
2026-05-03 23:18 -11.65174 117.91910 37954 ft 464 kts 312°
2026-05-03 23:19 -11.60480 117.87392 37971 ft 464 kts 312°
2026-05-03 23:19 -11.55788 117.82876 37953 ft 463 kts 312°
2026-05-03 23:20 -11.51133 117.78398 37976 ft 463 kts 312°
2026-05-03 23:20 -11.46443 117.73888 37957 ft 464 kts 312°
2026-05-03 23:21 -11.41747 117.69375 37958 ft 464 kts 312°
2026-05-03 23:21 -11.37045 117.64860 37951 ft 465 kts 312°
2026-05-03 23:22 -11.30017 117.58114 37950 ft 465 kts 313°
2026-05-03 23:22 -11.25307 117.53596 37950 ft 466 kts 313°
2026-05-03 23:23 -11.20598 117.49079 37951 ft 465 kts 313°
2026-05-03 23:23 -11.15879 117.44560 37953 ft 466 kts 313°
2026-05-03 23:24 -11.11189 117.40068 37953 ft 466 kts 313°
2026-05-03 23:24 -11.06463 117.35543 37951 ft 466 kts 313°
2026-05-03 23:25 -11.01737 117.31016 37957 ft 466 kts 313°
2026-05-03 23:25 -10.97009 117.26492 37944 ft 467 kts 313°
2026-05-03 23:26 -10.92277 117.21969 37945 ft 467 kts 313°
2026-05-03 23:26 -10.87583 117.17484 37944 ft 466 kts 313°
2026-05-03 23:27 -10.82849 117.12960 37947 ft 467 kts 313°
2026-05-03 23:27 -10.78113 117.08438 37938 ft 467 kts 313°
2026-05-03 23:28 -10.73405 117.03945 37938 ft 467 kts 313°
2026-05-03 23:28 -10.68660 116.99418 37944 ft 468 kts 313°
2026-05-03 23:29 -10.63915 116.94894 37941 ft 468 kts 313°
2026-05-03 23:29 -10.59169 116.90371 37950 ft 468 kts 313°
2026-05-03 23:30 -10.54429 116.85855 37948 ft 468 kts 313°
2026-05-03 23:30 -10.49711 116.81360 37950 ft 468 kts 313°
2026-05-03 23:31 -10.44956 116.76834 37930 ft 469 kts 314°
2026-05-03 23:31 -10.40196 116.72308 37934 ft 469 kts 314°
2026-05-03 23:32 -10.35468 116.67813 37930 ft 469 kts 314°
2026-05-03 23:32 -10.30709 116.63287 37932 ft 469 kts 314°
2026-05-03 23:33 -10.25949 116.58762 37945 ft 469 kts 314°
2026-05-03 23:33 -10.21188 116.54239 37939 ft 469 kts 314°
2026-05-03 23:34 -10.16424 116.49718 37933 ft 469 kts 314°
2026-05-03 23:34 -10.11690 116.45225 37937 ft 469 kts 314°
2026-05-03 23:35 -10.06920 116.40697 37937 ft 469 kts 314°
2026-05-03 23:35 -10.02150 116.36174 37931 ft 469 kts 314°
2026-05-03 23:36 -9.97384 116.31659 37936 ft 469 kts 314°
2026-05-03 23:36 -9.92639 116.27164 37936 ft 470 kts 314°
2026-05-03 23:37 -9.87858 116.22637 37936 ft 470 kts 314°
2026-05-03 23:37 -9.83080 116.18113 37932 ft 470 kts 314°
2026-05-03 23:38 -9.78302 116.13593 37931 ft 470 kts 314°
2026-05-03 23:38 -9.73555 116.09104 37933 ft 470 kts 314°
2026-05-03 23:39 -9.68782 116.04590 37926 ft 470 kts 314°
2026-05-03 23:39 -9.64001 116.00072 37924 ft 470 kts 314°
2026-05-03 23:40 -9.59219 115.95554 37923 ft 470 kts 314°
2026-05-03 23:40 -9.54439 115.91039 37924 ft 470 kts 315°
2026-05-03 23:41 -9.49687 115.86555 37921 ft 470 kts 315°
2026-05-03 23:41 -9.44901 115.82039 37923 ft 470 kts 315°
2026-05-03 23:42 -9.40114 115.77524 37928 ft 470 kts 315°
2026-05-03 23:42 -9.35326 115.73009 37928 ft 470 kts 315°
2026-05-03 23:43 -9.30575 115.68532 37925 ft 470 kts 315°
2026-05-03 23:43 -9.25784 115.64019 37924 ft 470 kts 315°
2026-05-03 23:44 -9.20996 115.59507 37921 ft 470 kts 315°
2026-05-03 23:44 -9.16207 115.54998 37922 ft 470 kts 315°
2026-05-03 23:45 -9.11453 115.50527 37915 ft 470 kts 315°
2026-05-03 23:45 -9.06661 115.46019 37915 ft 470 kts 315°
2026-05-03 23:46 -9.01867 115.41512 37915 ft 470 kts 315°
2026-05-03 23:46 -8.97073 115.37008 37915 ft 470 kts 315°
2026-05-03 23:47 -8.92310 115.32533 37917 ft 470 kts 315°
2026-05-03 23:47 -8.87516 115.28029 37915 ft 470 kts 315°
2026-05-03 23:48 -8.82720 115.23526 37929 ft 470 kts 315°
2026-05-03 23:48 -8.77922 115.19025 37938 ft 470 kts 315°
2026-05-03 23:49 -8.72895 115.14787 37933 ft 472 kts 321°
2026-05-03 23:49 -8.67645 115.10869 37934 ft 472 kts 322°
2026-05-03 23:50 -8.63213 115.07634 37935 ft 473 kts 322°
2026-05-03 23:50 -8.56984 115.03099 37929 ft 472 kts 322°
2026-05-03 23:51 -8.51658 114.99212 37935 ft 472 kts 322°
2026-05-03 23:51 -8.46370 114.95344 37932 ft 472 kts 322°
2026-05-03 23:52 -8.41047 114.91451 37932 ft 472 kts 322°
2026-05-03 23:52 -8.35728 114.87562 37933 ft 472 kts 322°
2026-05-03 23:53 -8.30406 114.83674 37932 ft 472 kts 322°
2026-05-03 23:53 -8.25118 114.79813 37934 ft 472 kts 322°
2026-05-03 23:54 -8.19797 114.75926 37936 ft 472 kts 322°
2026-05-03 23:54 -8.14479 114.72044 37934 ft 472 kts 322°
2026-05-03 23:55 -8.09160 114.68164 37934 ft 471 kts 323°
2026-05-03 23:55 -8.03873 114.64310 37936 ft 472 kts 323°
2026-05-03 23:56 -7.98557 114.60435 37936 ft 472 kts 323°
2026-05-03 23:56 -7.93238 114.56557 37932 ft 471 kts 323°
2026-05-03 23:57 -7.87920 114.52681 37929 ft 472 kts 323°
2026-05-03 23:57 -7.82602 114.48809 37922 ft 471 kts 323°
2026-05-03 23:58 -7.77323 114.44967 37927 ft 471 kts 323°
2026-05-03 23:58 -7.72007 114.41095 37924 ft 471 kts 323°
2026-05-03 23:59 -7.66693 114.37229 37928 ft 471 kts 323°
2026-05-03 23:59 -7.61375 114.33361 37923 ft 471 kts 323°
2026-05-04 00:00 -7.56098 114.29524 37922 ft 471 kts 323°
2026-05-04 00:00 -7.50782 114.25659 37922 ft 471 kts 323°
2026-05-04 00:01 -7.45464 114.21793 37926 ft 471 kts 323°
2026-05-04 00:01 -7.40146 114.17928 37918 ft 471 kts 323°
2026-05-04 00:02 -7.34864 114.14093 37915 ft 471 kts 323°
2026-05-04 00:02 -7.29552 114.10235 37915 ft 471 kts 323°
2026-05-04 00:03 -7.24232 114.06373 37915 ft 471 kts 323°
2026-05-04 00:03 -7.18913 114.02513 37915 ft 471 kts 323°
2026-05-04 00:04 -7.13596 113.98655 37917 ft 472 kts 323°
2026-05-04 00:04 -7.08297 113.94812 37915 ft 473 kts 323°
2026-05-04 00:05 -7.02962 113.90944 37916 ft 472 kts 323°
2026-05-04 00:05 -6.97629 113.87079 37915 ft 472 kts 323°
2026-05-04 00:06 -6.92292 113.83216 37916 ft 472 kts 324°
2026-05-04 00:06 -6.86994 113.79384 37915 ft 472 kts 323°
2026-05-04 00:07 -6.81659 113.75524 37915 ft 473 kts 324°
2026-05-04 00:07 -6.76324 113.71666 37915 ft 472 kts 324°
2026-05-04 00:08 -6.70988 113.67808 37916 ft 472 kts 324°
2026-05-04 00:08 -6.65690 113.63978 37915 ft 472 kts 324°
2026-05-04 00:09 -6.60353 113.60120 37914 ft 472 kts 324°
2026-05-04 00:09 -6.55016 113.56265 37915 ft 472 kts 324°
2026-05-04 00:10 -6.49680 113.52411 37915 ft 472 kts 324°
2026-05-04 00:10 -6.44351 113.48566 37915 ft 472 kts 324°
2026-05-04 00:11 -6.39052 113.44740 37916 ft 472 kts 324°
2026-05-04 00:11 -6.33715 113.40887 37916 ft 472 kts 324°
2026-05-04 00:12 -6.28375 113.37034 37916 ft 473 kts 324°
2026-05-04 00:12 -6.23569 113.32575 37917 ft 470 kts 310°
2026-05-04 00:13 -6.19472 113.27496 37915 ft 471 kts 307°
2026-05-04 00:13 -6.15484 113.22271 37916 ft 472 kts 307°
2026-05-04 00:14 -6.11503 113.17032 37908 ft 472 kts 307°
2026-05-04 00:14 -6.07507 113.11809 37907 ft 471 kts 307°
2026-05-04 00:15 -6.03502 113.06593 37906 ft 471 kts 307°
2026-05-04 00:15 -5.99521 113.01416 37907 ft 471 kts 308°
2026-05-04 00:16 -5.95514 112.96209 37905 ft 470 kts 308°
2026-05-04 00:16 -5.91525 112.91023 37906 ft 469 kts 308°
2026-05-04 00:17 -5.87538 112.85843 37906 ft 470 kts 308°
2026-05-04 00:17 -5.83529 112.80635 37907 ft 472 kts 308°
2026-05-04 00:18 -5.79529 112.75439 37906 ft 474 kts 308°
2026-05-04 00:18 -5.75497 112.70203 37907 ft 474 kts 308°
2026-05-04 00:19 -5.71464 112.64969 37906 ft 474 kts 308°
2026-05-04 00:19 -5.67434 112.59738 37906 ft 474 kts 308°
2026-05-04 00:20 -5.63429 112.54541 37907 ft 474 kts 308°
2026-05-04 00:20 -5.59402 112.49314 37907 ft 473 kts 308°
2026-05-04 00:21 -5.55371 112.44087 37907 ft 473 kts 308°
2026-05-04 00:21 -5.51339 112.38860 37906 ft 473 kts 308°
2026-05-04 00:22 -5.47307 112.33634 37906 ft 473 kts 308°
2026-05-04 00:22 -5.43300 112.28441 37906 ft 474 kts 308°
2026-05-04 00:23 -5.39261 112.23208 37906 ft 474 kts 308°
2026-05-04 00:23 -5.35227 112.17980 37907 ft 474 kts 308°
2026-05-04 00:24 -5.31184 112.12747 37906 ft 474 kts 308°
2026-05-04 00:24 -5.27141 112.07515 37905 ft 474 kts 308°
2026-05-04 00:25 -5.23124 112.02315 37906 ft 475 kts 308°
2026-05-04 00:25 -5.19076 111.97075 37906 ft 475 kts 308°
2026-05-04 00:26 -5.15029 111.91838 37906 ft 475 kts 308°
2026-05-04 00:26 -5.10979 111.86601 37906 ft 475 kts 308°
2026-05-04 00:27 -5.06955 111.81397 37907 ft 476 kts 308°
2026-05-04 00:27 -5.02896 111.76147 37906 ft 476 kts 308°
2026-05-04 00:28 -4.98832 111.70895 37907 ft 477 kts 308°
2026-05-04 00:28 -4.94765 111.65640 37906 ft 477 kts 308°
2026-05-04 00:29 -4.90720 111.60415 37906 ft 477 kts 308°
2026-05-04 00:29 -4.86650 111.55158 37906 ft 478 kts 308°
2026-05-04 00:30 -4.82574 111.49895 37907 ft 478 kts 308°
2026-05-04 00:30 -4.78499 111.44632 37906 ft 478 kts 308°
2026-05-04 00:31 -4.74420 111.39367 37907 ft 479 kts 308°
2026-05-04 00:31 -4.70364 111.34133 37907 ft 479 kts 308°
2026-05-04 00:32 -4.66277 111.28861 37906 ft 479 kts 308°
2026-05-04 00:32 -4.62191 111.23590 37907 ft 479 kts 308°
2026-05-04 00:33 -4.56083 111.15668 37906 ft 479 kts 308°
2026-05-04 00:34 -4.52044 111.10419 37906 ft 479 kts 308°
2026-05-04 00:34 -4.47976 111.05136 37906 ft 479 kts 308°
2026-05-04 00:35 -4.43911 110.99861 37907 ft 479 kts 308°
2026-05-04 00:35 -4.39841 110.94582 37906 ft 478 kts 308°
2026-05-04 00:36 -4.35769 110.89301 37907 ft 479 kts 308°
2026-05-04 00:36 -4.31720 110.84049 37907 ft 479 kts 308°
2026-05-04 00:37 -4.27642 110.78761 37906 ft 479 kts 308°
2026-05-04 00:37 -4.23566 110.73476 37906 ft 479 kts 308°
2026-05-04 00:38 -4.19487 110.68190 37907 ft 479 kts 308°
2026-05-04 00:38 -4.15415 110.62915 37906 ft 479 kts 308°
2026-05-04 00:39 -4.11369 110.57673 37907 ft 479 kts 308°
2026-05-04 00:39 -4.07295 110.52393 37906 ft 479 kts 308°
2026-05-04 00:40 -4.03218 110.47113 37906 ft 479 kts 308°
2026-05-04 00:40 -3.99168 110.41873 37906 ft 479 kts 308°
2026-05-04 00:41 -3.95045 110.36631 37906 ft 479 kts 310°
2026-05-04 00:41 -3.90716 110.31550 37906 ft 480 kts 311°
2026-05-04 00:42 -3.86340 110.26519 37906 ft 479 kts 311°
2026-05-04 00:42 -3.81973 110.21471 37907 ft 479 kts 311°
2026-05-04 00:43 -3.77648 110.16442 37906 ft 479 kts 311°
2026-05-04 00:43 -3.73302 110.11374 37906 ft 480 kts 311°
2026-05-04 00:44 -3.68956 110.06308 37906 ft 479 kts 311°
2026-05-04 00:44 -3.64615 110.01254 37906 ft 479 kts 311°
2026-05-04 00:45 -3.60267 109.96193 37906 ft 479 kts 311°
2026-05-04 00:45 -3.55949 109.91165 37906 ft 479 kts 311°
2026-05-04 00:46 -3.51603 109.86106 37906 ft 479 kts 311°
2026-05-04 00:46 -3.47255 109.81048 37906 ft 479 kts 311°
2026-05-04 00:47 -3.42909 109.75992 37915 ft 479 kts 311°
2026-05-04 00:47 -3.38592 109.70970 37916 ft 479 kts 311°
2026-05-04 00:48 -3.34252 109.65917 37915 ft 479 kts 311°
2026-05-04 00:48 -3.29903 109.60861 37926 ft 479 kts 311°
2026-05-04 00:49 -3.25552 109.55803 37923 ft 479 kts 311°
2026-05-04 00:49 -3.21231 109.50780 37926 ft 479 kts 311°
2026-05-04 00:50 -3.16882 109.45722 37928 ft 479 kts 311°
2026-05-04 00:50 -3.12531 109.40666 37923 ft 479 kts 311°
2026-05-04 00:51 -3.08185 109.35616 37924 ft 479 kts 311°
2026-05-04 00:51 -3.03834 109.30560 37925 ft 479 kts 311°
2026-05-04 00:52 -2.99512 109.25539 37921 ft 480 kts 311°
2026-05-04 00:52 -2.95157 109.20480 37923 ft 480 kts 311°
2026-05-04 00:53 -2.90805 109.15424 37928 ft 479 kts 311°
2026-05-04 00:53 -2.86449 109.10371 37924 ft 479 kts 311°
2026-05-04 00:54 -2.82114 109.05359 37924 ft 479 kts 311°
2026-05-04 00:54 -2.77753 109.00319 37922 ft 480 kts 311°
2026-05-04 00:55 -2.73388 108.95272 37925 ft 480 kts 311°
2026-05-04 00:55 -2.69023 108.90224 37923 ft 480 kts 311°
2026-05-04 00:56 -2.64655 108.85173 37928 ft 480 kts 311°
2026-05-04 00:56 -2.60318 108.80156 37924 ft 480 kts 311°
2026-05-04 00:57 -2.55951 108.75109 37921 ft 480 kts 311°
2026-05-04 00:57 -2.51581 108.70059 37925 ft 480 kts 311°
2026-05-04 00:58 -2.47211 108.65006 37928 ft 481 kts 311°
2026-05-04 00:58 -2.42870 108.59973 37923 ft 481 kts 311°
2026-05-04 00:59 -2.38502 108.54904 37922 ft 481 kts 311°
2026-05-04 00:59 -2.34132 108.49834 37926 ft 481 kts 311°
2026-05-04 01:00 -2.29757 108.44760 37923 ft 482 kts 311°
2026-05-04 01:00 -2.25408 108.39716 37923 ft 482 kts 311°
2026-05-04 01:01 -2.21032 108.34644 37928 ft 482 kts 311°
2026-05-04 01:01 -2.16651 108.29567 37927 ft 482 kts 311°
2026-05-04 01:02 -2.12269 108.24489 37925 ft 482 kts 311°
2026-05-04 01:02 -2.07920 108.19446 37926 ft 482 kts 311°
2026-05-04 01:03 -2.03537 108.14367 37925 ft 482 kts 311°
2026-05-04 01:03 -1.99157 108.09289 37922 ft 482 kts 311°
2026-05-04 01:04 -1.94782 108.04215 37928 ft 482 kts 311°
2026-05-04 01:04 -1.90396 107.99129 37921 ft 482 kts 311°
2026-05-04 01:05 -1.86048 107.94088 37922 ft 482 kts 311°
2026-05-04 01:05 -1.81666 107.89007 37925 ft 482 kts 311°
2026-05-04 01:06 -1.77286 107.83927 37926 ft 482 kts 311°
2026-05-04 01:06 -1.73648 107.79712 37925 ft 482 kts 311°
2026-05-04 01:07 -1.69267 107.74635 37922 ft 482 kts 311°
2026-05-04 01:07 -1.64179 107.68737 37928 ft 482 kts 311°
2026-05-04 01:08 -1.60537 107.64517 37928 ft 482 kts 311°
2026-05-04 01:08 -1.55426 107.58593 37927 ft 481 kts 311°
2026-05-04 01:09 -1.51795 107.54385 37928 ft 481 kts 311°
2026-05-04 01:09 -1.47428 107.49326 37924 ft 480 kts 311°
2026-05-04 01:10 -1.43067 107.44275 37921 ft 480 kts 311°
2026-05-04 01:10 -1.38731 107.39251 37924 ft 480 kts 311°
2026-05-04 01:11 -1.34346 107.34215 37925 ft 480 kts 312°
2026-05-04 01:11 -1.29919 107.29224 37923 ft 479 kts 312°
2026-05-04 01:12 -1.25488 107.24244 37927 ft 480 kts 312°
2026-05-04 01:12 -1.21088 107.19290 37924 ft 480 kts 312°
2026-05-04 01:13 -1.16665 107.14303 37922 ft 479 kts 312°
2026-05-04 01:13 -1.12254 107.09328 37925 ft 479 kts 312°
2026-05-04 01:14 -1.07838 107.04348 37927 ft 478 kts 312°
2026-05-04 01:14 -1.03425 106.99373 37923 ft 478 kts 312°
2026-05-04 01:15 -0.99042 106.94432 37921 ft 478 kts 312°
2026-05-04 01:15 -0.94632 106.89459 37924 ft 478 kts 312°
2026-05-04 01:16 -0.90222 106.84490 37925 ft 478 kts 312°
2026-05-04 01:16 -0.85815 106.79520 37927 ft 477 kts 312°
2026-05-04 01:17 -0.81415 106.74560 37924 ft 477 kts 312°
2026-05-04 01:17 -0.77040 106.69627 37915 ft 477 kts 312°
2026-05-04 01:18 -0.72637 106.64661 37915 ft 477 kts 313°
2026-05-04 01:18 -0.68242 106.59708 37925 ft 477 kts 313°
2026-05-04 01:19 -0.63838 106.54745 37923 ft 477 kts 313°
2026-05-04 01:19 -0.59478 106.49813 37922 ft 476 kts 312°
2026-05-04 01:20 -0.55117 106.44831 37924 ft 476 kts 312°
2026-05-04 01:20 -0.50757 106.39843 37926 ft 476 kts 312°
2026-05-04 01:21 -0.46396 106.34859 37927 ft 476 kts 312°
2026-05-04 01:21 -0.42065 106.29912 37935 ft 476 kts 312°
2026-05-04 01:22 -0.37706 106.24934 37935 ft 476 kts 312°
2026-05-04 01:22 -0.33354 106.19962 37935 ft 476 kts 312°
2026-05-04 01:23 -0.28998 106.14987 37935 ft 475 kts 312°
2026-05-04 01:23 -0.24643 106.10014 37931 ft 475 kts 312°
2026-05-04 01:24 -0.20312 106.05075 37935 ft 475 kts 313°
2026-05-04 01:24 -0.15962 106.00106 37934 ft 475 kts 312°
2026-05-04 01:25 -0.12655 105.96326 37939 ft 475 kts 312°
2026-05-04 01:26 -0.11182 105.94643 37924 ft 470 kts 312°
2026-05-04 01:27 -0.06950 105.89806 37944 ft 457 kts 313°
2026-05-04 01:27 -0.02751 105.85017 37933 ft 460 kts 313°
2026-05-04 01:28 0.01493 105.80193 37931 ft 464 kts 313°
2026-05-04 01:28 0.05720 105.75340 37933 ft 468 kts 309°
2026-05-04 01:29 0.09493 105.69999 37931 ft 473 kts 304°
2026-05-04 01:29 0.13070 105.64460 37935 ft 477 kts 303°
2026-05-04 01:30 0.16622 105.58853 37934 ft 478 kts 303°
2026-05-04 01:30 0.20157 105.53294 37935 ft 477 kts 303°
2026-05-04 01:31 0.23725 105.47713 37934 ft 477 kts 303°
2026-05-04 01:31 0.27299 105.42136 37934 ft 476 kts 303°
2026-05-04 01:32 0.30872 105.36560 37935 ft 476 kts 303°
2026-05-04 01:32 0.34440 105.30989 37935 ft 477 kts 303°
2026-05-04 01:33 0.37989 105.25446 37932 ft 477 kts 303°
2026-05-04 01:33 0.41561 105.19870 37937 ft 476 kts 303°
2026-05-04 01:34 0.45131 105.14295 37933 ft 476 kts 303°
2026-05-04 01:34 0.48155 105.09574 37936 ft 476 kts 303°
2026-05-04 01:35 0.50910 105.05272 37933 ft 476 kts 303°
2026-05-04 01:35 0.54476 104.99703 37932 ft 476 kts 303°
2026-05-04 01:36 0.58037 104.94141 37934 ft 475 kts 303°
2026-05-04 01:36 0.61598 104.88579 37935 ft 475 kts 303°
2026-05-04 01:37 0.65134 104.83055 37934 ft 475 kts 303°
2026-05-04 01:37 0.68692 104.77499 37934 ft 475 kts 303°
2026-05-04 01:38 0.72249 104.71944 37935 ft 474 kts 303°
2026-05-04 01:38 0.75780 104.66428 37934 ft 474 kts 303°
2026-05-04 01:39 0.79335 104.60871 37934 ft 474 kts 303°
2026-05-04 01:39 0.82890 104.55319 37935 ft 474 kts 303°
2026-05-04 01:40 0.86446 104.49769 37931 ft 474 kts 303°
2026-05-04 01:40 0.89998 104.44219 37932 ft 474 kts 303°
2026-05-04 01:41 0.93526 104.38706 37932 ft 474 kts 303°
2026-05-04 01:41 0.97075 104.33158 37936 ft 474 kts 303°
2026-05-04 01:42 1.00626 104.27612 37935 ft 473 kts 303°
2026-05-04 01:42 1.04177 104.22064 37929 ft 474 kts 303°
2026-05-04 01:43 1.07314 104.16337 37935 ft 474 kts 297°
2026-05-04 01:43 1.10216 104.10425 37939 ft 474 kts 296°
2026-05-04 01:44 1.13073 104.04482 37934 ft 474 kts 296°
2026-05-04 01:44 1.15926 103.98547 37932 ft 474 kts 296°
2026-05-04 01:45 1.18768 103.92655 37939 ft 474 kts 296°
2026-05-04 01:45 1.24117 103.84450 37936 ft 471 kts 317°
2026-05-04 01:46 1.29472 103.80761 37933 ft 469 kts 337°
2026-05-04 01:46 1.35524 103.78344 37935 ft 470 kts 335°
2026-05-04 01:47 1.41437 103.75539 37934 ft 471 kts 334°
2026-05-04 01:47 1.47256 103.72632 37935 ft 471 kts 333°
2026-05-04 01:48 1.53321 103.70207 37934 ft 470 kts 342°
2026-05-04 01:48 1.59514 103.68116 37934 ft 470 kts 338°
2026-05-04 01:49 1.65148 103.64843 37931 ft 470 kts 320°
2026-05-04 01:49 1.69363 103.59934 37931 ft 471 kts 300°
2026-05-04 01:50 1.72425 103.54140 37936 ft 473 kts 296°
2026-05-04 01:50 1.75270 103.48206 37930 ft 474 kts 296°
2026-05-04 01:51 1.78114 103.42266 37932 ft 474 kts 296°
2026-05-04 01:51 1.80997 103.36344 37936 ft 474 kts 296°
2026-05-04 01:52 1.83881 103.30464 37936 ft 474 kts 296°
2026-05-04 01:52 1.86786 103.24549 37932 ft 474 kts 296°
2026-05-04 01:53 1.89689 103.18632 37936 ft 474 kts 296°
2026-05-04 01:53 1.91144 103.15665 37780 ft 477 kts 296°
2026-05-04 01:53 1.92611 103.12675 37247 ft 480 kts 296°
2026-05-04 01:54 1.94083 103.09675 36551 ft 483 kts 296°
2026-05-04 01:54 1.95547 103.06689 35885 ft 486 kts 296°
2026-05-04 01:54 1.97039 103.03645 35173 ft 489 kts 296°
2026-05-04 01:54 1.98545 103.00573 34415 ft 493 kts 296°
2026-05-04 01:55 2.00063 102.97479 33626 ft 498 kts 296°
2026-05-04 01:55 2.01593 102.94356 32829 ft 503 kts 296°
2026-05-04 01:55 2.03137 102.91207 32040 ft 506 kts 296°
2026-05-04 01:55 2.04692 102.88032 31209 ft 511 kts 296°
2026-05-04 01:56 2.06235 102.84875 30427 ft 514 kts 296°
2026-05-04 01:56 2.07826 102.81614 29614 ft 516 kts 296°
2026-05-04 01:56 2.09380 102.78433 28895 ft 517 kts 296°
2026-05-04 01:56 2.10954 102.75205 28336 ft 514 kts 296°
2026-05-04 01:57 2.12509 102.72017 27625 ft 506 kts 296°
2026-05-04 01:57 2.12922 102.71171 27368 ft 505 kts 296°
2026-05-04 01:57 2.13915 102.69134 26739 ft 501 kts 296°
2026-05-04 01:57 2.14214 102.68521 26554 ft 500 kts 296°
2026-05-04 01:58 2.14459 102.68019 26387 ft 499 kts 296°
2026-05-04 01:58 2.15872 102.64878 25483 ft 493 kts 288°
2026-05-04 01:58 2.16639 102.61615 24562 ft 486 kts 278°
2026-05-04 01:58 2.17064 102.58292 23659 ft 480 kts 276°
2026-05-04 01:59 2.17428 102.54996 22815 ft 474 kts 275°
2026-05-04 01:59 2.17782 102.51752 21900 ft 467 kts 276°
2026-05-04 01:59 2.18139 102.48538 20948 ft 462 kts 276°
2026-05-04 01:59 2.18495 102.45382 20428 ft 452 kts 276°
2026-05-04 02:00 2.18848 102.42268 20066 ft 452 kts 276°
2026-05-04 02:00 2.19204 102.39140 19685 ft 452 kts 276°
2026-05-04 02:00 2.19559 102.36038 19314 ft 450 kts 276°
2026-05-04 02:00 2.19910 102.32969 18948 ft 448 kts 276°
2026-05-04 02:01 2.20263 102.29885 18578 ft 446 kts 276°
2026-05-04 02:01 2.20615 102.26813 18213 ft 444 kts 276°
2026-05-04 02:01 2.20967 102.23746 17843 ft 444 kts 276°
2026-05-04 02:01 2.21316 102.20690 17473 ft 441 kts 276°
2026-05-04 02:02 2.21663 102.17662 17110 ft 436 kts 276°
2026-05-04 02:02 2.22006 102.14661 16752 ft 433 kts 276°
2026-05-04 02:02 2.22348 102.11680 16395 ft 430 kts 276°
2026-05-04 02:02 2.22686 102.08726 16040 ft 427 kts 276°
2026-05-04 02:03 2.23018 102.05822 15695 ft 425 kts 276°
2026-05-04 02:03 2.23352 102.02899 15344 ft 422 kts 276°
2026-05-04 02:03 2.23684 101.99995 14994 ft 419 kts 276°
2026-05-04 02:03 2.24014 101.97112 14646 ft 417 kts 276°
2026-05-04 02:04 2.24341 101.94244 14303 ft 414 kts 277°
2026-05-04 02:04 2.24665 101.91414 14070 ft 404 kts 277°
2026-05-04 02:04 2.24979 101.88660 13804 ft 394 kts 277°
2026-05-04 02:04 2.25288 101.85962 13474 ft 386 kts 277°
2026-05-04 02:05 2.25584 101.83374 13147 ft 372 kts 277°
2026-05-04 02:05 2.25871 101.80858 12839 ft 356 kts 277°
2026-05-04 02:05 2.26144 101.78456 12586 ft 339 kts 277°
2026-05-04 02:05 2.26405 101.76170 12337 ft 323 kts 277°
2026-05-04 02:06 2.26655 101.73982 12066 ft 310 kts 277°
2026-05-04 02:06 2.26896 101.71876 11736 ft 301 kts 277°
2026-05-04 02:06 2.27133 101.69802 11150 ft 303 kts 277°
2026-05-04 02:06 2.27377 101.67672 10394 ft 312 kts 277°
2026-05-04 02:07 2.27699 101.65529 9616 ft 313 kts 286°
2026-05-04 02:07 2.28697 101.63616 8873 ft 313 kts 310°
2026-05-04 02:07 2.30176 101.62062 8139 ft 313 kts 316°
2026-05-04 02:07 2.31752 101.60563 7388 ft 313 kts 316°
2026-05-04 02:08 2.33332 101.59070 6637 ft 312 kts 316°
2026-05-04 02:08 2.34902 101.57573 5888 ft 311 kts 316°
2026-05-04 02:08 2.36533 101.56156 5137 ft 310 kts 325°
2026-05-04 02:08 2.38436 101.55163 4371 ft 309 kts 342°
2026-05-04 02:09 2.40544 101.54857 3622 ft 307 kts
2026-05-04 02:09 2.42575 101.55399 3047 ft 299 kts 29°
2026-05-04 02:09 2.44048 101.56674 3013 ft 273 kts 50°
2026-05-04 02:09 2.45143 101.58146 3022 ft 258 kts 55°
2026-05-04 02:10 2.46149 101.59623 3009 ft 256 kts 56°
2026-05-04 02:10 2.47150 101.61102 3010 ft 257 kts 56°
2026-05-04 02:10 2.48154 101.62580 3008 ft 256 kts 55°
2026-05-04 02:10 2.49160 101.64051 3008 ft 256 kts 55°
2026-05-04 02:11 2.50168 101.65527 3004 ft 257 kts 55°
2026-05-04 02:11 2.51172 101.66995 3007 ft 256 kts 55°
2026-05-04 02:11 2.52153 101.68480 3006 ft 256 kts 59°
2026-05-04 02:11 2.52722 101.70123 3000 ft 255 kts 88°
2026-05-04 02:12 2.52297 101.71814 3008 ft 254 kts 121°
2026-05-04 02:12 2.51084 101.73094 3012 ft 256 kts 143°
2026-05-04 02:12 2.49596 101.74098 3006 ft 260 kts 147°
2026-05-04 02:12 2.48060 101.75074 3007 ft 261 kts 147°
2026-05-04 02:13 2.46534 101.76055 2922 ft 261 kts 147°
2026-05-04 02:13 2.45022 101.77045 2764 ft 260 kts 146°
2026-05-04 02:13 2.43531 101.78053 2556 ft 258 kts 141°
2026-05-04 02:13 2.42417 101.79413 2511 ft 254 kts 110°
2026-05-04 02:14 2.42282 101.81113 2508 ft 251 kts 74°
2026-05-04 02:14 2.43048 101.82668 2517 ft 252 kts 56°
2026-05-04 02:14 2.44065 101.84101 2512 ft 254 kts 51°
2026-05-04 02:14 2.45397 101.85236 2515 ft 253 kts 23°
2026-05-04 02:15 2.47083 101.85450 2514 ft 242 kts 346°
2026-05-04 02:15 2.48572 101.84810 2518 ft 227 kts 330°
2026-05-04 02:15 2.49861 101.83989 2523 ft 213 kts 326°
2026-05-04 02:15 2.51043 101.83191 2536 ft 198 kts 326°
2026-05-04 02:16 2.52158 101.82432 2513 ft 196 kts 326°
2026-05-04 02:16 2.53285 101.81660 2502 ft 196 kts 326°
2026-05-04 02:16 2.54413 101.80888 2503 ft 197 kts 326°
2026-05-04 02:16 2.55543 101.80117 2505 ft 197 kts 326°
2026-05-04 02:17 2.56672 101.79346 2506 ft 196 kts 326°
2026-05-04 02:17 2.57804 101.78578 2505 ft 197 kts 326°
2026-05-04 02:17 2.58939 101.77813 2507 ft 197 kts 326°
2026-05-04 02:17 2.60065 101.77054 2512 ft 192 kts 326°
2026-05-04 02:18 2.61168 101.76310 2367 ft 190 kts 326°
2026-05-04 02:18 2.62260 101.75570 2107 ft 190 kts 326°
2026-05-04 02:18 2.63353 101.74830 1842 ft 189 kts 326°
2026-05-04 02:18 2.64422 101.74106 1592 ft 189 kts 326°
2026-05-04 02:19 2.65499 101.73380 1331 ft 182 kts 326°
2026-05-04 02:19 2.66512 101.72694 1099 ft 171 kts 326°
2026-05-04 02:19 2.67472 101.72045 883 ft 164 kts 326°
2026-05-04 02:19 2.68410 101.71409 668 ft 163 kts 326°
2026-05-04 02:20 2.69362 101.70765 449 ft 166 kts 326°
2026-05-04 02:20 2.70315 101.70115 221 ft 165 kts 325°
2026-05-04 02:20 2.71236 101.69489 66 ft 161 kts 324°
2026-05-04 02:20 2.72116 101.68899 43 ft 138 kts 324°
2026-05-04 02:21 2.72749 101.68470 41 ft 81 kts 326°
2026-05-04 02:21 2.73057 101.68262 42 ft 34 kts 326°
2026-05-04 02:21 2.73226 101.68148 40 ft 25 kts 326°
2026-05-04 02:21 2.73363 101.68067 39 ft 19 kts 348°
2026-05-04 02:22 2.73463 101.68124 40 ft 16 kts 54°
2026-05-04 02:22 2.73521 101.68210 41 ft 14 kts 55°
2026-05-04 02:22 2.73516 101.68286 43 ft 12 kts 132°
2026-05-04 02:22 2.73447 101.68338 43 ft 13 kts 144°
2026-05-04 02:23 2.73441 101.68411 44 ft 12 kts 62°
2026-05-04 02:23 2.73489 101.68487 45 ft 13 kts 57°
2026-05-04 02:23 2.73545 101.68569 45 ft 16 kts 56°
2026-05-04 02:23 2.73607 101.68662 45 ft 16 kts 56°
2026-05-04 02:24 2.73668 101.68752 45 ft 15 kts 56°
2026-05-04 02:24 2.73727 101.68839 45 ft 15 kts 56°
2026-05-04 02:24 2.73786 101.68927 45 ft 16 kts 56°
2026-05-04 02:24 2.73848 101.69019 45 ft 16 kts 56°
2026-05-04 02:25 2.73908 101.69109 45 ft 13 kts 56°
2026-05-04 02:25 2.73958 101.69182 45 ft 13 kts 56°
2026-05-04 02:25 2.73997 101.69224 46 ft 6 kts 17°
2026-05-04 02:25 2.74029 101.69211 46 ft 6 kts 334°
2026-05-04 02:26 2.74053 101.69196 46 ft 1 kts 326°
2026-05-04 02:26 2.74064 101.69189 46 ft 2 kts 326°
2026-05-04 02:26 2.74067 101.69187 46 ft 0 kts 326°